Precipitable_Water
1.19 1.23 1.31 1.31 1.29 1.27 1.27 1.29 1.29 1.27 1.27 1.29 1.29 1.31 1.31 1.29 1.29 1.27 1.27 1.25 1.25 1.25 1.25 1.25 1.25 1.25 1.23 1.21 1.21 1.19 1.19 1.21 1.21 1.21 1.23 1.23 1.23 1.23 1.25 1.25 1.27 1.29 1.31 1.29 1.29 1.29 1.29 1.29 1.29 1.31 1.33 1.35 1.39 1.41 1.45 1.47 1.47 1.47 1.47 1.47 1.45 1.45 1.45 1.43 1.43 1.41 1.39 1.39 1.41 1.41 1.41 1.41 1.39 1.37 1.35 1.35 1.35 1.33 1.31 1.29 1.25 1.21 1.15 1.13 1.11 1.09
1.19 1.23 1.29 1.31 1.31 1.27 1.27 1.31 1.31 1.31 1.27 1.29 1.29 1.31 1.29 1.29 1.27 1.27 1.27 1.27 1.27 1.25 1.25 1.25 1.25 1.23 1.21 1.21 1.21 1.21 1.21 1.21 1.21 1.23 1.23 1.23 1.23 1.23 1.25 1.25 1.27 1.27 1.27 1.27 1.27 1.27 1.27 1.27 1.29 1.31 1.33 1.37 1.39 1.43 1.45 1.45 1.47 1.47 1.45 1.45 1.43 1.43 1.43 1.43 1.43 1.41 1.39 1.39 1.39 1.41 1.41 1.41 1.39 1.37 1.35 1.35 1.35 1.33 1.31 1.29 1.25 1.21 1.17 1.13 1.11 1.09
1.19 1.21 1.21 1.29 1.29 1.29 1.27 1.31 1.31 1.33 1.31 1.29 1.31 1.33 1.31 1.29 1.27 1.25 1.25 1.25 1.27 1.27 1.27 1.25 1.25 1.23 1.23 1.23 1.23 1.21 1.21 1.23 1.23 1.23 1.23 1.23 1.23 1.25 1.25 1.25 1.25 1.27 1.27 1.27 1.27 1.27 1.27 1.27 1.29 1.31 1.35 1.37 1.39 1.41 1.45 1.45 1.45 1.45 1.43 1.43 1.43 1.43 1.43 1.43 1.43 1.41 1.39 1.39 1.39 1.41 1.43 1.41 1.39 1.37 1.35 1.35 1.35 1.33 1.31 1.29 1.27 1.23 1.19 1.17 1.13 1.11
1.21 1.21 1.21 1.25 1.29 1.31 1.29 1.33 1.33 1.35 1.35 1.33 1.35 1.35 1.35 1.31 1.29 1.27 1.27 1.27 1.27 1.27 1.27 1.25 1.25 1.23 1.23 1.23 1.23 1.23 1.23 1.25 1.25 1.25 1.25 1.23 1.23 1.23 1.23 1.23 1.23 1.25 1.25 1.25 1.25 1.27 1.27 1.29 1.29 1.31 1.33 1.35 1.37 1.39 1.43 1.43 1.45 1.43 1.43 1.41 1.41 1.41 1.43 1.43 1.43 1.41 1.41 1.39 1.39 1.39 1.43 1.39 1.37 1.35 1.35 1.35 1.33 1.33 1.31 1.29 1.25 1.21 1.19 1.17 1.15 1.13
1.21 1.21 1.23 1.23 1.25 1.27 1.31 1.35 1.37 1.37 1.37 1.37 1.35 1.35 1.35 1.33 1.31 1.29 1.31 1.29 1.29 1.27 1.27 1.27 1.25 1.25 1.25 1.25 1.25 1.25 1.25 1.25 1.25 1.25 1.25 1.23 1.23 1.23 1.23 1.21 1.21 1.21 1.23 1.23 1.25 1.25 1.27 1.29 1.31 1.31 1.35 1.35 1.37 1.39 1.39 1.41 1.41 1.43 1.41 1.41 1.41 1.41 1.41 1.43 1.41 1.41 1.41 1.39 1.41 1.41 1.43 1.41 1.37 1.37 1.35 1.35 1.33 1.33 1.31 1.31 1.25 1.21 1.19 1.17 1.15 1.13
1.21 1.23 1.27 1.25 1.25 1.27 1.31 1.33 1.37 1.37 1.37 1.37 1.35 1.35 1.35 1.33 1.33 1.31 1.31 1.31 1.29 1.29 1.27 1.27 1.27 1.27 1.27 1.27 1.25 1.25 1.25 1.27 1.27 1.25 1.25 1.23 1.23 1.21 1.21 1.21 1.21 1.21 1.23 1.25 1.25 1.27 1.27 1.29 1.31 1.31 1.33 1.35 1.35 1.37 1.37 1.39 1.39 1.41 1.39 1.39 1.39 1.41 1.41 1.41 1.41 1.41 1.41 1.41 1.41 1.41 1.43 1.39 1.37 1.37 1.35 1.35 1.33 1.33 1.31 1.29 1.25 1.23 1.21 1.19 1.17 1.15
1.21 1.25 1.29 1.27 1.27 1.29 1.31 1.33 1.35 1.37 1.37 1.35 1.35 1.33 1.33 1.35 1.33 1.33 1.31 1.31 1.29 1.29 1.29 1.29 1.29 1.29 1.29 1.29 1.27 1.27 1.27 1.27 1.27 1.25 1.25 1.23 1.23 1.21 1.21 1.21 1.23 1.23 1.23 1.25 1.27 1.27 1.29 1.31 1.31 1.31 1.33 1.33 1.33 1.35 1.35 1.37 1.37 1.37 1.37 1.37 1.39 1.39 1.39 1.41 1.41 1.41 1.41 1.41 1.41 1.41 1.43 1.39 1.39 1.37 1.37 1.35 1.33 1.33 1.31 1.29 1.25 1.23 1.21 1.19 1.19 1.17
1.23 1.25 1.27 1.29 1.29 1.29 1.31 1.31 1.35 1.37 1.35 1.33 1.31 1.29 1.31 1.33 1.31 1.31 1.33 1.33 1.31 1.31 1.29 1.29 1.29 1.29 1.29 1.29 1.29 1.29 1.29 1.27 1.27 1.25 1.25 1.23 1.23 1.23 1.21 1.23 1.25 1.25 1.25 1.27 1.27 1.29 1.29 1.31 1.31 1.31 1.33 1.33 1.33 1.33 1.33 1.35 1.35 1.35 1.35 1.35 1.37 1.37 1.37 1.39 1.39 1.41 1.41 1.41 1.41 1.41 1.41 1.39 1.39 1.37 1.37 1.35 1.33 1.33 1.29 1.27 1.25 1.23 1.23 1.21 1.21 1.19
1.23 1.25 1.27 1.27 1.27 1.27 1.29 1.27 1.31 1.35 1.37 1.35 1.31 1.27 1.27 1.27 1.27 1.29 1.31 1.31 1.33 1.31 1.31 1.29 1.27 1.29 1.31 1.31 1.31 1.29 1.29 1.29 1.27 1.27 1.25 1.25 1.25 1.25 1.25 1.25 1.27 1.27 1.27 1.27 1.29 1.29 1.29 1.31 1.31 1.31 1.33 1.33 1.33 1.33 1.33 1.33 1.35 1.35 1.33 1.35 1.35 1.35 1.35 1.37 1.37 1.37 1.39 1.39 1.39 1.39 1.39 1.39 1.37 1.37 1.37 1.35 1.33 1.31 1.29 1.27 1.25 1.23 1.23 1.21 1.21 1.19
1.25 1.25 1.25 1.29 1.29 1.27 1.25 1.25 1.29 1.35 1.37 1.37 1.33 1.31 1.29 1.25 1.23 1.23 1.25 1.27 1.29 1.31 1.31 1.31 1.29 1.27 1.29 1.31 1.31 1.33 1.31 1.31 1.31 1.29 1.27 1.29 1.27 1.27 1.27 1.27 1.27 1.27 1.27 1.27 1.29 1.29 1.31 1.31 1.31 1.31 1.31 1.31 1.31 1.33 1.31 1.33 1.33 1.33 1.31 1.33 1.33 1.33 1.33 1.35 1.35 1.35 1.37 1.39 1.39 1.37 1.37 1.37 1.37 1.37 1.37 1.33 1.33 1.31 1.27 1.27 1.25 1.23 1.21 1.21 1.21 1.21
1.23 1.25 1.25 1.25 1.27 1.27 1.27 1.27 1.31 1.33 1.37 1.35 1.33 1.31 1.31 1.29 1.25 1.23 1.19 1.21 1.25 1.29 1.31 1.31 1.29 1.29 1.29 1.29 1.31 1.33 1.33 1.31 1.31 1.31 1.31 1.29 1.29 1.29 1.29 1.29 1.29 1.27 1.27 1.29 1.29 1.29 1.29 1.29 1.29 1.29 1.31 1.29 1.31 1.31 1.31 1.31 1.31 1.31 1.31 1.31 1.31 1.31 1.33 1.33 1.33 1.35 1.35 1.37 1.37 1.37 1.37 1.37 1.35 1.35 1.35 1.33 1.31 1.29 1.25 1.23 1.23 1.23 1.21 1.23 1.21 1.21
1.21 1.23 1.23 1.23 1.25 1.25 1.27 1.27 1.29 1.31 1.33 1.31 1.27 1.23 1.25 1.27 1.29 1.27 1.21 1.19 1.21 1.23 1.25 1.29 1.31 1.31 1.31 1.29 1.31 1.33 1.33 1.29 1.29 1.29 1.29 1.29 1.29 1.29 1.29 1.27 1.27 1.27 1.27 1.27 1.27 1.27 1.27 1.27 1.27 1.27 1.27 1.27 1.27 1.29 1.29 1.29 1.29 1.29 1.29 1.29 1.31 1.31 1.31 1.33 1.33 1.33 1.35 1.35 1.35 1.35 1.35 1.35 1.35 1.33 1.33 1.31 1.29 1.27 1.25 1.23 1.21 1.21 1.21 1.21 1.21 1.21
1.21 1.21 1.21 1.21 1.21 1.21 1.23 1.21 1.21 1.23 1.25 1.23 1.19 1.17 1.19 1.25 1.27 1.27 1.23 1.21 1.21 1.23 1.25 1.27 1.27 1.29 1.29 1.31 1.31 1.31 1.31 1.27 1.27 1.27 1.27 1.25 1.25 1.25 1.25 1.23 1.23 1.23 1.25 1.23 1.23 1.23 1.25 1.23 1.23 1.25 1.25 1.25 1.25 1.27 1.27 1.27 1.29 1.29 1.29 1.29 1.29 1.31 1.31 1.31 1.31 1.33 1.33 1.33 1.33 1.33 1.33 1.33 1.33 1.31 1.31 1.27 1.27 1.25 1.25 1.21 1.21 1.21 1.21 1.21 1.21 1.19
1.15 1.15 1.17 1.17 1.17 1.19 1.19 1.17 1.17 1.17 1.19 1.19 1.21 1.21 1.21 1.23 1.25 1.25 1.23 1.23 1.25 1.25 1.27 1.25 1.23 1.25 1.25 1.29 1.29 1.31 1.29 1.25 1.25 1.23 1.23 1.21 1.23 1.23 1.21 1.19 1.19 1.21 1.21 1.19 1.17 1.19 1.21 1.21 1.21 1.21 1.23 1.23 1.25 1.27 1.27 1.27 1.27 1.29 1.29 1.29 1.29 1.29 1.29 1.31 1.31 1.31 1.31 1.31 1.31 1.31 1.31 1.31 1.29 1.29 1.29 1.25 1.25 1.23 1.23 1.21 1.21 1.21 1.21 1.21 1.21 1.19
1.13 1.13 1.11 1.11 1.11 1.13 1.17 1.17 1.17 1.17 1.17 1.21 1.23 1.25 1.25 1.27 1.25 1.23 1.21 1.19 1.23 1.25 1.21 1.21 1.21 1.21 1.21 1.25 1.27 1.29 1.29 1.23 1.21 1.19 1.19 1.15 1.17 1.21 1.21 1.17 1.17 1.17 1.19 1.15 1.15 1.17 1.19 1.21 1.21 1.21 1.21 1.23 1.23 1.25 1.25 1.27 1.27 1.27 1.27 1.27 1.29 1.29 1.29 1.29 1.29 1.29 1.29 1.31 1.29 1.29 1.29 1.29 1.27 1.27 1.27 1.23 1.23 1.21 1.21 1.21 1.21 1.21 1.21 1.21 1.21 1.19
1.11 1.11 1.09 1.09 1.09 1.11 1.15 1.17 1.17 1.17 1.19 1.21 1.23 1.23 1.21 1.21 1.21 1.19 1.19 1.17 1.19 1.19 1.17 1.15 1.13 1.13 1.15 1.21 1.25 1.27 1.25 1.19 1.17 1.15 1.13 1.11 1.13 1.17 1.21 1.15 1.13 1.13 1.15 1.13 1.13 1.15 1.19 1.19 1.19 1.21 1.21 1.21 1.23 1.25 1.25 1.25 1.27 1.27 1.27 1.27 1.27 1.29 1.27 1.27 1.29 1.29 1.27 1.29 1.29 1.27 1.27 1.27 1.25 1.23 1.25 1.21 1.21 1.19 1.19 1.19 1.19 1.21 1.21 1.19 1.17 1.15
1.11 1.09 1.09 1.09 1.09 1.11 1.13 1.17 1.17 1.17 1.17 1.19 1.21 1.21 1.19 1.19 1.17 1.17 1.17 1.15 1.17 1.15 1.11 1.09 1.07 1.03 1.01 1.07 1.13 1.21 1.23 1.15 1.13 1.11 1.09 1.09 1.11 1.15 1.17 1.13 1.09 1.09 1.11 1.11 1.13 1.15 1.17 1.17 1.17 1.19 1.19 1.21 1.21 1.23 1.23 1.25 1.25 1.27 1.27 1.27 1.27 1.27 1.27 1.27 1.27 1.27 1.27 1.27 1.27 1.25 1.25 1.25 1.23 1.21 1.21 1.21 1.19 1.17 1.17 1.17 1.17 1.19 1.19 1.17 1.15 1.13
1.07 1.07 1.07 1.07 1.09 1.11 1.13 1.15 1.17 1.17 1.19 1.17 1.17 1.19 1.19 1.19 1.19 1.17 1.15 1.13 1.11 1.09 1.05 1.05 1.03 0.99 0.99 0.99 1.07 1.13 1.21 1.17 1.13 1.09 1.09 1.05 1.05 1.09 1.15 1.11 1.09 1.07 1.09 1.09 1.11 1.15 1.15 1.17 1.17 1.19 1.19 1.19 1.19 1.21 1.21 1.21 1.23 1.23 1.25 1.25 1.25 1.25 1.23 1.25 1.25 1.25 1.23 1.25 1.25 1.25 1.23 1.23 1.21 1.19 1.19 1.19 1.17 1.15 1.15 1.17 1.17 1.17 1.17 1.15 1.13 1.09
1.03 1.05 1.07 1.07 1.07 1.09 1.13 1.13 1.15 1.15 1.17 1.15 1.15 1.15 1.15 1.17 1.15 1.15 1.13 1.11 1.11 1.09 1.05 1.03 1.01 1.01 0.99 1.01 1.07 1.13 1.19 1.15 1.11 1.07 1.05 1.03 1.03 1.07 1.11 1.11 1.09 1.07 1.07 1.07 1.07 1.11 1.15 1.17 1.17 1.17 1.19 1.17 1.17 1.19 1.19 1.19 1.21 1.21 1.23 1.23 1.23 1.23 1.21 1.23 1.23 1.23 1.23 1.23 1.23 1.23 1.23 1.21 1.19 1.17 1.17 1.15 1.15 1.15 1.15 1.17 1.17 1.17 1.17 1.15 1.13 1.09
1.01 1.03 1.05 1.07 1.07 1.09 1.09 1.11 1.13 1.15 1.15 1.17 1.15 1.13 1.13 1.13 1.13 1.11 1.11 1.09 1.09 1.09 1.07 1.05 1.01 1.01 1.01 1.03 1.09 1.15 1.17 1.13 1.09 1.05 1.03 1.01 1.03 1.07 1.09 1.07 1.05 1.05 1.05 1.05 1.07 1.11 1.13 1.13 1.15 1.17 1.17 1.17 1.17 1.17 1.17 1.17 1.19 1.19 1.21 1.19 1.21 1.21 1.19 1.21 1.21 1.21 1.21 1.21 1.21 1.21 1.19 1.19 1.17 1.15 1.15 1.15 1.15 1.17 1.17 1.17 1.15 1.15 1.15 1.11 1.09 1.07
0.99 1.01 1.05 1.07 1.07 1.07 1.07 1.11 1.15 1.17 1.19 1.19 1.17 1.15 1.11 1.11 1.09 1.07 1.09 1.09 1.09 1.07 1.05 1.03 1.01 1.03 1.05 1.05 1.07 1.11 1.15 1.15 1.11 1.07 1.05 1.01 1.03 1.05 1.07 1.05 1.03 1.03 1.01 1.03 1.07 1.09 1.13 1.13 1.13 1.15 1.15 1.15 1.15 1.17 1.17 1.17 1.17 1.17 1.17 1.17 1.17 1.17 1.17 1.19 1.19 1.19 1.19 1.19 1.19 1.19 1.17 1.17 1.17 1.17 1.17 1.15 1.17 1.17 1.17 1.15 1.13 1.13 1.11 1.09 1.07 1.05
0.99 1.01 1.05 1.07 1.07 1.07 1.07 1.11 1.15 1.19 1.21 1.17 1.15 1.11 1.09 1.09 1.07 1.05 1.07 1.07 1.07 1.05 1.03 1.03 1.03 1.05 1.11 1.09 1.11 1.13 1.17 1.15 1.11 1.07 1.03 0.97 0.97 0.99 1.03 1.03 1.03 1.03 0.99 0.99 1.01 1.05 1.11 1.11 1.13 1.13 1.15 1.15 1.15 1.15 1.17 1.15 1.15 1.17 1.17 1.15 1.15 1.17 1.17 1.17 1.17 1.17 1.17 1.17 1.17 1.17 1.17 1.15 1.15 1.15 1.15 1.17 1.15 1.15 1.15 1.13 1.11 1.11 1.11 1.07 1.07 1.05
0.99 0.99 1.01 1.03 1.05 1.07 1.09 1.11 1.15 1.17 1.21 1.17 1.15 1.13 1.11 1.09 1.09 1.09 1.07 1.07 1.07 1.09 1.07 1.07 1.07 1.09 1.11 1.11 1.13 1.15 1.15 1.15 1.11 1.07 1.03 0.95 0.93 0.97 1.03 1.03 1.01 0.99 0.99 0.99 1.01 1.05 1.07 1.07 1.09 1.11 1.13 1.15 1.15 1.15 1.15 1.15 1.15 1.15 1.15 1.15 1.15 1.15 1.15 1.15 1.15 1.15 1.15 1.15 1.17 1.17 1.15 1.15 1.15 1.15 1.15 1.15 1.13 1.13 1.13 1.11 1.11 1.09 1.07 1.05 1.05 1.03
0.99 0.99 1.01 1.03 1.05 1.07 1.07 1.09 1.09 1.11 1.17 1.15 1.15 1.15 1.15 1.13 1.13 1.13 1.13 1.11 1.11 1.11 1.09 1.09 1.09 1.09 1.05 1.07 1.09 1.11 1.11 1.13 1.13 1.11 1.07 0.97 0.95 0.97 1.01 1.01 0.99 0.97 0.97 0.99 1.01 1.03 1.05 1.07 1.09 1.13 1.13 1.15 1.15 1.15 1.15 1.15 1.15 1.15 1.13 1.13 1.13 1.13 1.13 1.13 1.13 1.13 1.13 1.13 1.15 1.15 1.15 1.15 1.15 1.13 1.13 1.13 1.11 1.09 1.09 1.09 1.07 1.05 1.05 1.03 1.03 1.01
0.99 0.99 1.01 1.01 1.03 1.05 1.05 1.07 1.07 1.09 1.11 1.11 1.11 1.13 1.15 1.15 1.15 1.15 1.15 1.13 1.11 1.07 1.05 1.03 1.03 1.01 0.99 1.01 1.05 1.07 1.09 1.13 1.13 1.09 1.03 0.97 0.95 0.95 0.99 1.01 0.99 0.97 0.95 0.97 0.99 1.03 1.03 1.05 1.09 1.11 1.13 1.13 1.13 1.13 1.15 1.13 1.13 1.13 1.13 1.13 1.13 1.13 1.13 1.13 1.13 1.11 1.11 1.11 1.13 1.13 1.13 1.13 1.13 1.11 1.09 1.09 1.09 1.07 1.07 1.07 1.05 1.03 1.03 1.01 1.01 1.01
0.95 0.97 0.99 1.01 1.03 1.03 1.03 1.05 1.07 1.09 1.09 1.09 1.09 1.11 1.11 1.13 1.11 1.09 1.09 1.09 1.05 1.01 0.99 0.97 0.95 0.95 0.95 0.97 0.99 1.01 1.05 1.09 1.11 1.07 1.01 0.97 0.95 0.95 0.99 0.99 0.99 0.97 0.95 0.97 0.99 1.01 1.01 1.01 1.03 1.07 1.09 1.11 1.11 1.13 1.13 1.13 1.13 1.11 1.11 1.11 1.11 1.11 1.11 1.11 1.11 1.11 1.09 1.09 1.11 1.11 1.11 1.11 1.11 1.09 1.07 1.07 1.07 1.05 1.05 1.05 1.03 1.03 1.01 1.01 0.99 0.99
0.88 0.91 0.93 0.97 0.99 0.99 1.01 1.03 1.05 1.07 1.09 1.07 1.09 1.09 1.09 1.09 1.05 1.01 0.99 1.01 1.01 0.99 0.97 0.93 0.91 0.91 0.91 0.93 0.95 0.97 1.01 1.05 1.07 1.07 1.05 0.99 0.95 0.95 0.97 0.99 0.99 0.97 0.95 0.97 0.97 0.99 1.01 1.01 1.03 1.05 1.07 1.09 1.11 1.11 1.13 1.11 1.11 1.11 1.11 1.11 1.11 1.11 1.11 1.09 1.09 1.09 1.09 1.09 1.09 1.09 1.09 1.09 1.09 1.07 1.05 1.05 1.05 1.03 1.03 1.03 1.01 1.01 1.01 0.99 0.99 0.97
0.76 0.82 0.88 0.91 0.91 0.91 0.95 0.97 0.99 1.03 1.05 1.05 1.07 1.07 1.07 1.05 0.99 0.95 0.95 0.99 0.97 0.95 0.93 0.91 0.90 0.90 0.90 0.90 0.93 0.97 1.01 1.03 1.05 1.07 1.09 1.03 0.97 0.95 0.93 0.97 0.99 0.97 0.95 0.93 0.95 0.97 1.01 1.01 1.01 1.03 1.05 1.07 1.09 1.09 1.11 1.11 1.11 1.11 1.11 1.09 1.09 1.09 1.09 1.09 1.09 1.09 1.09 1.09 1.09 1.07 1.07 1.07 1.07 1.05 1.05 1.05 1.03 1.03 1.03 1.01 1.01 1.01 0.99 0.99 0.97 0.97
0.62 0.70 0.76 0.82 0.84 0.84 0.90 0.93 0.97 0.99 1.03 1.03 1.03 1.05 1.05 1.05 0.99 0.95 0.97 0.99 0.97 0.93 0.91 0.91 0.90 0.90 0.90 0.91 0.93 0.95 0.97 1.01 1.05 1.07 1.09 1.01 0.95 0.95 0.95 0.97 0.97 0.95 0.95 0.93 0.93 0.95 0.97 0.97 0.99 1.01 1.03 1.03 1.05 1.07 1.09 1.09 1.09 1.09 1.09 1.09 1.09 1.09 1.09 1.09 1.09 1.09 1.09 1.07 1.07 1.07 1.07 1.05 1.05 1.05 1.03 1.03 1.03 1.03 1.01 1.01 1.01 0.99 0.99 0.99 0.97 0.95
0.44 0.52 0.62 0.70 0.72 0.72 0.80 0.88 0.91 0.95 0.97 0.99 1.01 1.03 1.03 1.03 1.01 0.99 0.99 0.99 0.97 0.95 0.91 0.90 0.90 0.90 0.90 0.90 0.90 0.90 0.88 0.95 1.01 1.07 1.07 0.99 0.95 0.95 0.95 0.95 0.95 0.95 0.95 0.91 0.90 0.90 0.93 0.95 0.97 0.99 1.01 1.01 1.03 1.05 1.07 1.05 1.07 1.07 1.09 1.07 1.07 1.09 1.09 1.09 1.09 1.09 1.07 1.07 1.07 1.05 1.05 1.05 1.05 1.03 1.03 1.03 1.03 1.01 1.01 1.01 0.99 0.99 0.97 0.97 0.95 0.93
0.32 0.36 0.44 0.50 0.52 0.54 0.62 0.70 0.78 0.84 0.90 0.95 0.99 1.01 1.01 1.01 1.01 1.01 1.01 0.99 0.97 0.93 0.91 0.90 0.90 0.90 0.90 0.88 0.84 0.84 0.82 0.90 0.97 1.03 1.07 0.99 0.95 0.93 0.95 0.93 0.93 0.95 0.95 0.93 0.90 0.86 0.86 0.88 0.91 0.95 0.99 0.99 0.99 1.01 1.03 1.03 1.03 1.05 1.05 1.05 1.05 1.05 1.07 1.07 1.07 1.07 1.07 1.05 1.05 1.05 1.03 1.03 1.03 1.03 1.01 1.01 1.01 1.01 0.99 0.99 0.99 0.97 0.95 0.95 0.93 0.91
0.28 0.30 0.32 0.36 0.36 0.38 0.42 0.50 0.58 0.66 0.70 0.80 0.88 0.93 0.99 0.97 0.99 0.99 0.99 0.99 0.97 0.95 0.91 0.91 0.90 0.90 0.90 0.88 0.84 0.82 0.86 0.91 0.97 1.03 1.03 0.97 0.95 0.95 0.95 0.93 0.93 0.93 0.95 0.95 0.90 0.86 0.80 0.82 0.86 0.90 0.95 0.95 0.95 0.99 1.01 1.01 1.01 1.01 1.03 1.01 1.01 1.01 1.03 1.05 1.05 1.05 1.05 1.03 1.03 1.03 1.03 1.03 1.01 1.01 1.01 1.01 1.01 0.99 0.99 0.99 0.97 0.95 0.93 0.93 0.91 0.90
0.28 0.28 0.28 0.30 0.30 0.32 0.34 0.38 0.44 0.50 0.48 0.60 0.70 0.82 0.91 0.91 0.93 0.97 0.99 0.99 0.99 0.97 0.93 0.91 0.91 0.90 0.88 0.88 0.86 0.86 0.88 0.91 0.95 0.99 1.01 0.97 0.95 0.93 0.93 0.93 0.93 0.93 0.95 0.93 0.91 0.88 0.82 0.84 0.86 0.88 0.91 0.93 0.95 0.95 0.99 0.99 0.99 0.99 0.99 0.97 0.97 0.97 0.99 1.01 1.01 1.01 1.01 1.01 1.01 1.01 1.01 1.01 1.01 1.01 0.99 0.99 0.99 0.99 0.99 0.97 0.97 0.95 0.93 0.91 0.90 0.88
0.27 0.27 0.28 0.28 0.28 0.28 0.28 0.32 0.36 0.38 0.38 0.46 0.56 0.68 0.80 0.80 0.86 0.91 0.95 0.97 0.97 0.97 0.95 0.93 0.91 0.90 0.88 0.86 0.86 0.86 0.86 0.90 0.93 0.97 0.99 0.95 0.93 0.91 0.91 0.91 0.91 0.91 0.91 0.90 0.88 0.88 0.86 0.84 0.84 0.84 0.86 0.88 0.90 0.91 0.95 0.95 0.97 0.97 0.97 0.97 0.95 0.95 0.95 0.97 0.97 0.97 0.99 0.97 0.97 0.99 0.99 0.99 0.99 0.99 0.99 0.99 0.99 0.99 0.97 0.97 0.97 0.95 0.93 0.91 0.90 0.88
0.25 0.25 0.27 0.27 0.27 0.27 0.27 0.28 0.30 0.32 0.32 0.36 0.44 0.54 0.66 0.66 0.72 0.82 0.90 0.93 0.95 0.95 0.95 0.95 0.93 0.90 0.90 0.86 0.84 0.84 0.86 0.90 0.93 0.95 0.97 0.93 0.91 0.90 0.90 0.90 0.90 0.91 0.90 0.88 0.86 0.86 0.84 0.82 0.82 0.82 0.82 0.84 0.86 0.88 0.91 0.93 0.93 0.95 0.97 0.95 0.95 0.95 0.95 0.95 0.95 0.95 0.97 0.95 0.95 0.97 0.97 0.97 0.97 0.97 0.97 0.97 0.97 0.97 0.97 0.97 0.95 0.95 0.93 0.91 0.90 0.88
0.23 0.23 0.23 0.25 0.25 0.25 0.25 0.27 0.27 0.28 0.28 0.30 0.34 0.40 0.46 0.48 0.54 0.62 0.70 0.78 0.82 0.86 0.90 0.93 0.93 0.93 0.93 0.91 0.88 0.88 0.88 0.90 0.91 0.93 0.93 0.91 0.90 0.88 0.88 0.88 0.90 0.90 0.90 0.88 0.86 0.84 0.80 0.80 0.82 0.80 0.80 0.80 0.80 0.80 0.84 0.88 0.90 0.91 0.93 0.93 0.93 0.93 0.93 0.93 0.93 0.93 0.93 0.93 0.93 0.93 0.93 0.93 0.95 0.95 0.95 0.97 0.97 0.97 0.95 0.95 0.95 0.93 0.93 0.91 0.90 0.88
0.21 0.21 0.23 0.23 0.23 0.23 0.25 0.25 0.27 0.27 0.28 0.28 0.30 0.34 0.38 0.42 0.46 0.50 0.56 0.66 0.70 0.74 0.82 0.88 0.91 0.93 0.91 0.91 0.91 0.90 0.91 0.91 0.91 0.91 0.91 0.90 0.90 0.88 0.86 0.86 0.88 0.90 0.90 0.88 0.86 0.84 0.82 0.80 0.78 0.78 0.78 0.78 0.76 0.78 0.80 0.84 0.86 0.88 0.90 0.91 0.91 0.91 0.91 0.91 0.91 0.93 0.91 0.91 0.91 0.91 0.93 0.93 0.93 0.93 0.95 0.95 0.95 0.95 0.93 0.93 0.93 0.93 0.91 0.90 0.88 0.86
0.21 0.21 0.21 0.23 0.23 0.23 0.25 0.25 0.27 0.28 0.28 0.30 0.32 0.34 0.38 0.40 0.44 0.46 0.50 0.56 0.60 0.66 0.74 0.80 0.86 0.88 0.88 0.90 0.90 0.90 0.90 0.90 0.88 0.88 0.90 0.88 0.88 0.88 0.86 0.86 0.88 0.90 0.91 0.90 0.88 0.86 0.82 0.78 0.76 0.74 0.74 0.76 0.76 0.78 0.80 0.82 0.82 0.84 0.86 0.88 0.90 0.90 0.90 0.90 0.90 0.91 0.91 0.90 0.91 0.91 0.91 0.91 0.91 0.93 0.93 0.93 0.93 0.93 0.91 0.91 0.91 0.91 0.90 0.88 0.86 0.84
0.21 0.21 0.21 0.21 0.21 0.23 0.23 0.25 0.27 0.28 0.30 0.32 0.34 0.36 0.38 0.42 0.44 0.46 0.46 0.50 0.54 0.60 0.68 0.74 0.80 0.82 0.82 0.86 0.88 0.88 0.88 0.86 0.86 0.86 0.86 0.86 0.86 0.86 0.84 0.84 0.86 0.90 0.91 0.91 0.88 0.86 0.80 0.78 0.74 0.74 0.74 0.72 0.72 0.74 0.76 0.80 0.80 0.80 0.82 0.84 0.84 0.84 0.88 0.88 0.88 0.88 0.90 0.90 0.90 0.90 0.90 0.91 0.91 0.91 0.91 0.91 0.91 0.90 0.88 0.88 0.90 0.90 0.88 0.86 0.84 0.84
0.21 0.21 0.21 0.23 0.23 0.23 0.25 0.25 0.25 0.27 0.28 0.30 0.32 0.34 0.38 0.40 0.44 0.46 0.46 0.46 0.48 0.48 0.54 0.62 0.68 0.74 0.78 0.80 0.82 0.84 0.84 0.84 0.84 0.84 0.84 0.84 0.84 0.84 0.86 0.84 0.84 0.86 0.90 0.90 0.88 0.88 0.84 0.82 0.78 0.78 0.76 0.74 0.72 0.72 0.74 0.76 0.78 0.80 0.80 0.82 0.80 0.80 0.84 0.86 0.86 0.86 0.88 0.88 0.88 0.88 0.90 0.90 0.90 0.90 0.90 0.90 0.90 0.88 0.90 0.88 0.88 0.88 0.86 0.86 0.82 0.80
0.21 0.21 0.21 0.23 0.25 0.25 0.25 0.25 0.27 0.27 0.28 0.28 0.30 0.32 0.36 0.38 0.42 0.44 0.46 0.46 0.44 0.44 0.48 0.56 0.64 0.70 0.72 0.76 0.80 0.82 0.82 0.82 0.82 0.82 0.82 0.82 0.82 0.84 0.84 0.84 0.84 0.86 0.88 0.88 0.86 0.86 0.84 0.82 0.80 0.78 0.76 0.74 0.74 0.72 0.72 0.74 0.76 0.78 0.78 0.76 0.78 0.78 0.82 0.84 0.84 0.84 0.84 0.84 0.86 0.88 0.88 0.88 0.88 0.88 0.88 0.88 0.88 0.90 0.90 0.88 0.88 0.86 0.86 0.84 0.82 0.78
0.21 0.23 0.23 0.25 0.25 0.25 0.27 0.27 0.28 0.28 0.28 0.27 0.27 0.28 0.32 0.36 0.40 0.42 0.44 0.44 0.42 0.42 0.44 0.50 0.56 0.62 0.64 0.70 0.76 0.80 0.80 0.80 0.82 0.82 0.82 0.82 0.82 0.82 0.84 0.84 0.84 0.86 0.86 0.86 0.86 0.84 0.84 0.82 0.78 0.78 0.78 0.76 0.74 0.72 0.70 0.72 0.74 0.76 0.78 0.76 0.78 0.78 0.78 0.80 0.82 0.82 0.82 0.84 0.86 0.86 0.88 0.86 0.86 0.86 0.88 0.88 0.88 0.90 0.90 0.88 0.88 0.86 0.84 0.84 0.84 0.82
0.21 0.23 0.23 0.25 0.25 0.27 0.28 0.28 0.28 0.27 0.25 0.25 0.25 0.27 0.28 0.34 0.40 0.42 0.42 0.42 0.40 0.40 0.40 0.40 0.44 0.46 0.48 0.54 0.62 0.68 0.70 0.76 0.80 0.80 0.80 0.80 0.82 0.82 0.82 0.82 0.82 0.84 0.86 0.84 0.82 0.82 0.82 0.82 0.82 0.80 0.78 0.76 0.74 0.70 0.68 0.70 0.72 0.74 0.76 0.76 0.76 0.74 0.72 0.76 0.78 0.80 0.82 0.82 0.84 0.86 0.86 0.86 0.86 0.86 0.86 0.86 0.88 0.88 0.88 0.88 0.88 0.86 0.86 0.84 0.82 0.82
0.23 0.23 0.23 0.23 0.25 0.25 0.25 0.25 0.27 0.27 0.27 0.25 0.25 0.25 0.27 0.28 0.32 0.36 0.40 0.42 0.42 0.42 0.40 0.40 0.42 0.44 0.44 0.50 0.56 0.62 0.66 0.72 0.76 0.80 0.80 0.80 0.82 0.82 0.82 0.80 0.82 0.82 0.84 0.82 0.80 0.80 0.80 0.80 0.80 0.78 0.78 0.76 0.74 0.70 0.68 0.70 0.70 0.72 0.74 0.76 0.74 0.72 0.72 0.70 0.72 0.76 0.76 0.80 0.82 0.84 0.86 0.86 0.86 0.86 0.86 0.86 0.86 0.86 0.88 0.86 0.86 0.86 0.86 0.84 0.84 0.82
0.23 0.23 0.23 0.25 0.25 0.25 0.25 0.27 0.28 0.30 0.30 0.30 0.28 0.28 0.28 0.32 0.34 0.36 0.38 0.42 0.44 0.44 0.42 0.40 0.40 0.40 0.40 0.44 0.52 0.58 0.62 0.68 0.74 0.76 0.78 0.80 0.80 0.82 0.80 0.80 0.80 0.82 0.82 0.82 0.80 0.80 0.78 0.78 0.78 0.78 0.78 0.78 0.74 0.72 0.68 0.68 0.68 0.68 0.70 0.72 0.74 0.74 0.74 0.74 0.76 0.76 0.76 0.78 0.80 0.84 0.84 0.86 0.86 0.86 0.84 0.84 0.84 0.84 0.86 0.84 0.84 0.84 0.84 0.84 0.84 0.84
0.25 0.25 0.23 0.23 0.23 0.23 0.25 0.27 0.28 0.28 0.30 0.32 0.34 0.34 0.34 0.36 0.36 0.36 0.36 0.40 0.42 0.42 0.44 0.42 0.40 0.38 0.36 0.42 0.46 0.52 0.56 0.62 0.68 0.72 0.72 0.74 0.76 0.78 0.80 0.80 0.80 0.80 0.80 0.82 0.82 0.82 0.82 0.78 0.78 0.76 0.76 0.74 0.72 0.68 0.68 0.68 0.68 0.68 0.70 0.70 0.72 0.72 0.74 0.74 0.76 0.76 0.76 0.78 0.80 0.84 0.84 0.86 0.86 0.84 0.82 0.82 0.82 0.82 0.84 0.84 0.84 0.84 0.84 0.84 0.84 0.82
0.25 0.25 0.23 0.23 0.23 0.23 0.23 0.25 0.25 0.25 0.27 0.30 0.34 0.36 0.38 0.40 0.40 0.40 0.36 0.36 0.36 0.36 0.40 0.44 0.42 0.40 0.36 0.38 0.40 0.42 0.44 0.50 0.56 0.62 0.68 0.70 0.74 0.76 0.78 0.78 0.78 0.80 0.80 0.82 0.82 0.82 0.82 0.80 0.78 0.76 0.74 0.72 0.68 0.66 0.68 0.68 0.68 0.68 0.68 0.68 0.68 0.70 0.70 0.70 0.72 0.74 0.76 0.78 0.80 0.82 0.84 0.84 0.82 0.80 0.80 0.80 0.80 0.82 0.82 0.84 0.84 0.84 0.84 0.84 0.84 0.82
0.27 0.25 0.25 0.25 0.25 0.23 0.23 0.23 0.23 0.23 0.23 0.23 0.27 0.32 0.36 0.40 0.42 0.42 0.40 0.36 0.34 0.34 0.36 0.40 0.40 0.38 0.38 0.38 0.40 0.42 0.42 0.48 0.54 0.60 0.66 0.68 0.72 0.74 0.76 0.76 0.76 0.78 0.80 0.80 0.82 0.82 0.82 0.82 0.80 0.78 0.78 0.74 0.70 0.66 0.64 0.66 0.66 0.66 0.68 0.68 0.68 0.68 0.68 0.70 0.72 0.74 0.76 0.78 0.80 0.84 0.84 0.82 0.82 0.80 0.80 0.80 0.78 0.78 0.80 0.80 0.82 0.84 0.84 0.84 0.84 0.82
0.27 0.27 0.25 0.25 0.25 0.23 0.23 0.23 0.25 0.25 0.23 0.23 0.25 0.27 0.30 0.36 0.42 0.44 0.42 0.40 0.38 0.36 0.34 0.36 0.36 0.38 0.38 0.38 0.40 0.40 0.42 0.44 0.50 0.56 0.62 0.66 0.68 0.70 0.72 0.72 0.72 0.74 0.76 0.78 0.78 0.78 0.80 0.80 0.80 0.78 0.78 0.74 0.70 0.68 0.64 0.66 0.66 0.68 0.68 0.68 0.68 0.68 0.68 0.70 0.72 0.74 0.76 0.76 0.80 0.82 0.84 0.84 0.82 0.82 0.80 0.78 0.78 0.76 0.78 0.78 0.80 0.82 0.84 0.84 0.84 0.82
0.27 0.27 0.27 0.27 0.25 0.25 0.25 0.25 0.25 0.27 0.27 0.25 0.25 0.27 0.28 0.32 0.36 0.40 0.42 0.42 0.40 0.38 0.36 0.36 0.36 0.38 0.36 0.38 0.40 0.40 0.40 0.40 0.42 0.46 0.54 0.58 0.64 0.68 0.70 0.70 0.70 0.70 0.70 0.72 0.72 0.72 0.74 0.76 0.76 0.76 0.76 0.76 0.72 0.70 0.66 0.66 0.66 0.66 0.66 0.66 0.68 0.68 0.68 0.68 0.70 0.74 0.76 0.78 0.80 0.82 0.82 0.84 0.82 0.82 0.80 0.78 0.76 0.76 0.76 0.76 0.76 0.78 0.82 0.82 0.82 0.82
0.27 0.27 0.27 0.27 0.27 0.27 0.27 0.27 0.27 0.27 0.27 0.27 0.27 0.27 0.28 0.28 0.30 0.34 0.36 0.36 0.38 0.40 0.40 0.38 0.38 0.38 0.38 0.38 0.40 0.40 0.42 0.40 0.42 0.44 0.50 0.56 0.62 0.66 0.68 0.68 0.66 0.66 0.66 0.68 0.66 0.64 0.66 0.68 0.66 0.66 0.68 0.74 0.76 0.74 0.70 0.66 0.66 0.64 0.64 0.66 0.66 0.68 0.68 0.70 0.72 0.74 0.76 0.78 0.80 0.82 0.82 0.82 0.82 0.80 0.80 0.78 0.76 0.74 0.74 0.74 0.76 0.78 0.80 0.80 0.80 0.82
Wind_Speed
48 47 45 44 44 44 44 44 44 44 44 44 43 44 44 44 45 45 45 45 45 45 45 45 44 44 43 43 44 44 43 43 42 41 41 41 41 40 40 40 39 38 38 38 37 37 37 37 37 37 38 38 38 38 38 37 37 36 36 36 36 36 36 36 35 34 34 33 32 30 30 29 29 29 29 28 27 25 24 23 23 22 21 21 21 20
47 45 44 43 43 43 43 43 43 43 43 43 43 43 43 44 44 45 45 45 45 45 45 45 45 45 45 45 45 45 45 45 44 43 42 42 42 42 41 41 40 39 39 38 38 38 38 38 38 38 38 38 38 38 38 38 37 37 37 37 38 37 37 36 36 35 34 33 32 31 30 30 30 30 30 29 28 26 25 24 23 23 22 22 22 21
44 44 43 42 42 43 43 43 43 43 43 42 42 42 43 44 44 44 44 45 45 45 46 46 46 46 46 46 47 47 47 47 45 44 43 43 43 42 42 41 41 40 40 39 39 39 38 39 39 39 39 39 39 39 39 38 38 38 38 39 39 38 37 36 36 35 35 34 33 32 31 31 31 31 31 30 28 26 25 25 24 24 23 22 22 22
44 44 44 43 43 44 43 43 42 42 42 42 42 43 43 43 44 44 44 45 45 45 46 46 47 47 47 47 47 47 47 47 45 44 44 43 43 43 42 42 41 41 40 40 40 39 39 39 39 40 40 40 40 40 40 40 39 39 40 40 40 39 37 36 36 35 35 35 34 33 32 32 32 32 31 30 28 27 26 26 25 24 24 23 22 22
44 45 45 44 44 44 44 43 42 42 42 42 43 43 43 43 44 44 44 45 45 45 46 46 47 47 47 47 47 47 46 45 44 44 43 43 43 43 43 42 42 41 41 41 41 40 40 40 40 40 40 41 41 41 41 41 41 41 41 41 40 39 38 37 36 36 36 35 34 33 32 32 32 32 31 30 29 28 27 27 26 25 25 23 23 22
44 45 45 44 44 44 43 42 41 41 41 42 43 43 43 43 44 44 44 44 44 45 45 46 46 47 47 47 46 45 44 44 43 43 43 43 43 43 43 43 42 42 42 41 41 40 40 40 40 40 40 41 41 42 42 42 42 42 41 41 40 39 38 37 37 36 36 35 33 33 33 33 33 33 31 30 30 29 28 27 27 26 25 24 23 22
44 44 43 43 43 43 42 42 41 41 41 42 42 43 43 43 43 43 43 43 43 43 44 44 44 45 45 45 44 43 43 42 42 43 43 43 43 43 43 42 42 41 41 40 40 39 39 39 39 39 39 40 40 41 42 42 42 41 41 41 40 39 39 38 37 36 35 34 32 32 33 34 34 33 32 31 31 30 29 28 27 27 26 25 23 21
43 43 42 42 42 42 42 42 42 42 42 42 42 42 42 42 42 42 42 42 41 41 42 42 42 43 43 42 42 42 41 41 41 41 42 42 42 41 41 41 40 40 39 39 38 38 37 37 37 38 38 39 39 40 41 41 41 40 40 40 39 39 39 38 37 36 34 32 31 32 33 34 34 34 33 32 32 31 30 28 28 28 27 25 23 21
42 41 41 41 41 40 41 41 42 42 42 42 42 42 41 41 41 40 40 40 41 41 40 40 41 41 41 41 40 40 40 40 40 40 40 39 39 39 39 38 38 38 37 37 37 36 36 36 37 37 37 38 38 39 39 40 39 39 39 38 38 38 38 38 37 35 33 32 31 32 33 34 35 35 34 33 32 31 30 29 28 28 28 26 24 22
41 41 40 40 40 40 40 40 40 41 42 42 42 41 40 40 39 39 39 39 40 40 40 39 39 39 39 38 38 38 38 38 38 38 38 37 37 37 37 36 36 36 36 36 36 36 36 36 37 37 37 38 38 38 38 38 38 38 37 37 37 37 37 37 36 34 33 31 31 32 33 34 35 35 35 34 33 32 31 29 29 29 29 27 24 22
39 39 39 39 39 39 39 39 39 40 40 40 41 41 40 40 39 39 38 38 38 38 38 38 38 37 37 36 36 36 36 36 36 36 36 36 35 35 35 35 35 35 35 36 36 36 36 36 37 37 37 37 37 37 37 37 37 36 36 36 36 36 36 36 35 34 32 31 31 31 32 33 34 35 35 34 33 32 31 30 29 29 29 27 25 22
38 38 38 38 38 37 38 38 38 39 39 39 39 39 39 39 39 38 38 37 37 37 36 36 36 36 36 35 35 35 34 34 34 34 34 34 34 34 34 34 34 35 35 35 35 36 36 36 36 36 36 36 36 36 36 36 35 35 35 35 35 35 35 35 34 33 32 31 31 31 32 33 34 35 35 34 34 33 31 30 30 30 30 28 25 23
38 38 38 38 38 37 37 37 37 37 38 38 38 38 38 38 37 37 37 36 36 35 35 35 35 35 35 35 35 34 34 34 33 33 33 33 33 33 33 33 33 33 34 34 34 34 35 35 35 35 35 35 35 35 35 34 34 34 33 33 33 34 34 34 34 33 31 30 30 31 31 32 34 34 35 34 33 32 31 31 30 31 30 27 25 23
38 37 37 38 38 38 38 38 37 37 38 38 38 38 37 37 36 36 36 35 35 35 34 34 34 34 34 35 34 34 34 34 34 33 33 33 33 33 33 33 33 33 33 33 33 33 33 33 33 34 34 34 34 34 34 33 33 32 32 32 32 33 33 33 33 32 31 30 30 30 31 32 33 34 34 34 33 32 31 31 31 31 30 28 26 24
38 37 37 37 38 38 38 38 38 38 38 38 38 37 37 36 36 35 35 35 35 35 34 34 34 34 34 34 34 34 34 34 34 34 34 34 33 33 33 33 32 32 32 32 32 32 32 32 32 32 32 32 32 32 32 32 32 31 31 31 32 32 33 33 32 31 31 30 30 30 31 32 33 34 34 34 33 32 31 32 32 32 30 28 26 25
37 37 37 38 38 38 38 39 39 39 38 38 37 37 36 36 35 35 35 35 35 35 34 34 34 34 34 34 34 34 34 34 34 34 34 34 34 33 33 32 32 32 32 32 32 32 31 31 31 31 31 31 31 32 32 31 31 31 31 31 31 32 32 32 31 31 30 30 30 30 31 32 32 33 34 33 33 32 32 32 33 32 31 29 27 26
36 37 38 38 38 38 38 39 39 39 38 38 38 37 37 36 36 35 35 35 35 34 34 34 33 33 33 33 33 33 33 34 34 34 34 34 34 33 33 32 32 32 32 32 32 31 31 30 30 30 30 30 30 31 31 30 30 30 30 31 31 31 31 31 30 30 29 29 29 30 31 32 32 33 33 33 32 32 31 32 33 32 30 29 27 26
34 35 36 37 38 38 38 38 38 38 38 38 37 37 37 37 36 36 35 35 35 35 35 35 34 34 34 33 33 33 33 33 34 34 34 34 33 33 33 32 32 32 32 32 31 31 31 30 30 30 29 29 30 30 30 29 29 30 30 31 31 31 31 30 29 29 29 29 29 30 30 31 32 33 33 33 32 32 32 32 32 31 30 29 27 27
33 33 33 35 36 37 37 38 38 38 37 37 37 37 37 36 36 36 36 36 36 35 35 35 36 35 35 35 34 33 33 33 34 34 34 33 33 33 32 32 32 32 32 32 31 31 30 30 30 29 29 29 29 29 29 29 29 29 30 30 30 30 30 29 29 28 28 28 29 30 30 31 32 33 33 33 32 32 32 32 31 30 29 28 27 27
33 33 32 32 33 34 35 36 37 37 37 36 36 36 36 37 36 36 36 36 36 36 36 36 36 36 36 36 35 34 34 34 34 34 34 33 33 33 32 32 32 32 32 31 31 31 30 30 29 29 29 28 28 28 28 28 29 29 29 30 30 29 29 28 28 28 28 28 29 30 30 31 32 33 33 33 33 32 32 31 31 30 29 28 27 26
34 34 33 33 32 32 33 34 35 36 36 36 36 36 37 37 37 37 37 37 37 37 37 37 37 37 37 36 36 35 35 34 34 34 34 33 33 33 32 32 32 31 31 31 31 30 30 29 29 29 28 28 28 28 28 28 29 29 29 29 29 29 28 27 27 27 27 28 29 30 30 31 32 32 33 32 32 32 31 31 30 30 28 27 26 26
36 36 35 35 34 34 34 34 34 35 36 37 37 37 37 37 37 38 38 38 38 38 38 38 38 38 37 37 37 36 36 35 34 33 33 32 32 32 32 31 31 31 31 30 30 30 29 29 29 28 28 28 28 28 28 29 29 29 29 29 28 28 27 27 27 27 27 28 29 30 30 31 31 32 32 32 31 31 31 31 30 30 28 27 26 26
37 37 37 37 36 36 36 36 35 35 36 37 38 39 38 38 38 38 38 38 39 39 39 39 39 38 38 37 37 37 36 35 34 33 32 32 32 32 31 31 31 30 30 30 30 29 29 29 28 28 28 28 28 28 28 29 29 29 29 28 28 27 26 26 26 26 27 27 28 30 31 31 31 31 31 31 31 30 30 30 30 29 28 27 26 25
39 39 38 38 38 38 38 38 38 37 37 37 38 39 39 39 39 39 39 39 39 39 39 39 38 38 38 38 38 37 36 36 34 33 32 32 31 31 31 31 30 30 30 29 29 29 29 28 28 28 28 28 28 29 29 29 29 29 29 28 27 27 26 26 26 26 27 27 28 30 31 31 31 31 31 30 30 30 30 30 30 29 28 27 26 25
41 41 40 40 40 40 40 40 40 40 39 39 38 39 39 40 40 40 40 39 39 39 38 38 38 38 38 38 38 37 37 36 35 34 33 32 31 31 31 31 30 30 29 29 29 29 28 28 28 28 28 28 29 29 30 30 30 29 29 28 27 26 26 26 26 26 27 27 28 29 30 31 31 30 30 29 29 29 29 30 30 29 28 27 26 25
44 43 43 43 43 43 43 42 42 42 42 41 40 40 40 40 40 40 40 39 39 39 38 38 38 39 38 38 38 38 37 37 36 35 34 32 31 31 31 31 30 30 29 29 29 29 28 28 28 28 28 29 30 30 31 30 30 29 29 28 27 26 26 26 26 27 27 28 29 29 30 30 30 30 29 28 28 28 29 29 30 29 28 27 25 25
46 46 46 46 45 45 44 44 44 44 43 43 42 41 41 40 40 40 40 40 40 39 39 39 39 39 39 38 38 38 37 37 36 36 35 33 32 31 31 31 31 30 29 29 29 28 28 28 28 28 29 29 30 31 31 31 30 30 29 28 27 27 26 27 27 27 28 28 29 30 30 30 30 30 29 28 27 28 28 29 30 30 28 27 25 25
48 48 48 48 47 47 46 46 45 45 45 45 44 43 42 42 41 41 41 41 41 40 40 40 39 39 39 39 38 38 38 37 37 36 35 34 33 32 32 32 31 30 29 28 28 28 28 28 28 29 29 30 30 31 31 31 31 30 29 28 28 27 27 28 28 29 29 29 29 30 30 31 30 30 29 28 27 28 29 30 30 30 29 27 26 25
49 49 49 49 49 49 48 48 47 47 46 46 46 45 44 43 43 43 42 42 41 41 41 41 41 40 40 40 39 38 38 38 38 37 36 34 33 33 33 32 31 31 29 28 28 28 28 29 29 29 30 30 31 31 31 32 31 30 30 29 29 29 29 29 30 30 30 30 30 30 31 31 31 30 29 28 28 28 29 30 31 30 30 28 27 26
49 49 49 50 50 50 49 49 49 48 48 47 47 46 46 45 45 44 44 42 42 42 42 42 42 41 41 40 39 39 39 39 38 37 36 35 34 33 33 32 32 32 30 29 28 28 29 30 30 30 31 31 31 32 32 32 32 31 31 30 30 30 31 31 31 31 31 31 31 31 31 31 31 31 30 29 29 29 30 30 31 31 30 29 28 27
49 49 49 50 50 50 50 50 50 49 49 49 48 48 47 46 46 46 45 44 43 43 43 43 43 42 42 40 39 39 39 39 39 38 37 35 35 34 33 33 33 33 32 30 29 29 30 31 31 31 32 32 32 33 33 33 33 32 32 31 31 31 32 32 32 32 32 32 32 32 32 32 32 31 31 30 30 30 30 30 31 31 30 29 28 27
50 50 50 50 50 50 50 50 50 50 50 50 49 49 48 48 47 47 46 45 45 44 43 43 43 43 43 42 42 41 40 40 40 39 38 37 36 35 35 34 34 34 33 32 32 31 31 31 32 32 32 33 33 33 34 34 34 34 33 33 32 32 32 32 32 32 32 33 33 33 33 33 33 32 32 31 30 30 30 31 31 31 30 29 29 28
51 51 51 51 50 50 50 50 50 50 50 50 50 50 49 49 49 48 48 47 46 45 45 44 44 44 44 44 44 43 42 41 40 40 39 38 37 36 36 35 35 35 35 34 34 33 32 32 32 33 33 33 33 34 34 35 35 35 35 34 33 33 33 33 32 32 32 33 33 34 34 34 33 33 32 32 31 31 31 31 31 31 30 30 29 28
53 52 52 52 51 51 51 51 51 51 51 51 51 51 51 50 50 50 49 49 48 47 47 46 46 45 45 45 45 45 44 42 42 41 41 40 38 38 37 37 37 36 36 36 35 34 34 33 33 33 33 34 34 34 34 35 36 36 36 36 35 34 33 33 32 32 32 32 33 33 34 34 34 34 33 32 32 31 31 31 31 31 31 30 29 28
54 54 53 53 52 52 52 52 51 51 51 51 52 52 52 52 51 51 51 51 50 50 49 49 48 48 47 47 47 46 45 44 43 43 42 41 40 39 39 39 39 38 38 37 37 36 35 35 35 35 34 34 34 35 35 35 36 36 37 37 36 36 35 34 33 33 32 32 33 33 34 34 34 34 34 33 32 32 32 32 32 32 31 31 30 29
54 54 54 54 54 54 53 53 52 52 52 52 52 52 52 52 52 52 52 52 52 52 52 51 51 51 50 50 49 48 47 46 45 44 44 43 42 41 40 40 40 40 39 39 39 38 37 36 36 36 36 35 35 35 36 36 36 37 37 37 37 37 36 35 34 34 33 33 33 33 34 34 34 34 34 33 33 32 32 32 32 32 32 31 31 30
54 55 55 55 55 54 54 54 54 53 53 53 52 52 52 52 52 53 53 53 53 53 53 53 53 53 52 52 51 50 49 47 46 45 45 44 43 42 41 41 41 41 41 40 40 39 39 38 37 37 37 37 37 36 36 36 36 37 37 38 38 38 37 37 36 35 35 34 34 34 34 35 34 34 34 33 33 32 32 33 33 33 32 32 31 30
52 53 54 54 54 55 55 55 54 54 54 53 53 53 52 53 53 53 53 53 54 54 54 54 53 53 53 53 52 51 49 48 47 47 46 45 45 44 43 42 42 42 42 41 41 41 40 39 38 38 38 38 38 38 37 37 37 37 38 38 38 38 38 38 37 36 36 36 35 35 35 35 35 34 34 33 33 32 32 33 33 33 33 33 32 31
50 51 52 53 53 54 54 55 55 55 54 54 54 54 53 54 54 54 54 54 54 54 54 54 54 54 53 53 52 51 50 49 48 47 47 46 46 45 44 43 42 42 42 42 42 42 41 41 40 39 39 38 38 38 38 38 38 38 38 38 39 39 39 39 38 38 37 37 36 36 36 36 35 35 34 33 33 32 32 33 33 34 34 33 32 32
48 49 50 50 51 52 53 54 54 55 55 55 55 55 55 55 55 55 55 54 54 54 55 55 54 54 53 53 52 51 50 49 49 48 47 47 46 46 45 44 43 43 42 42 42 42 42 42 42 41 40 40 39 38 38 39 39 39 39 38 39 39 40 40 39 39 38 38 38 37 37 37 36 35 34 33 33 33 33 33 34 34 34 33 33 32
47 47 48 48 49 50 51 52 53 53 54 54 55 55 55 55 55 55 55 55 55 55 55 55 55 54 54 53 52 52 51 50 49 49 48 47 47 46 46 45 44 43 42 42 42 43 42 42 42 41 41 40 40 39 39 39 40 40 39 39 40 40 40 40 40 40 39 39 39 38 38 37 37 36 35 34 33 33 34 34 34 34 34 34 34 33
46 46 47 47 47 47 48 49 50 51 52 54 54 55 56 56 56 56 56 56 55 55 55 55 54 54 54 53 53 52 51 51 50 50 49 48 48 47 47 46 45 44 43 42 42 42 42 42 42 41 41 40 40 39 39 40 40 40 40 40 40 40 40 41 41 41 40 40 40 39 39 38 37 36 35 34 34 34 34 35 35 34 34 34 34 33
45 46 46 46 46 47 48 48 49 50 51 52 53 54 55 55 56 56 56 56 56 56 56 55 55 54 54 53 53 53 52 52 51 51 50 49 49 48 48 47 46 45 44 43 42 43 42 42 42 42 41 41 40 40 40 40 40 40 40 40 40 40 40 41 41 41 41 41 40 40 39 39 37 36 35 35 34 34 35 35 35 35 35 34 33 33
43 44 45 45 45 46 47 47 48 49 50 51 52 53 53 54 55 56 56 56 57 56 56 56 55 55 54 54 54 53 53 52 52 52 51 51 50 50 49 48 47 46 45 44 43 43 42 42 42 42 41 41 40 40 40 40 40 40 40 41 41 41 41 41 42 42 42 41 41 41 40 39 38 37 36 35 35 35 35 35 35 35 35 34 34 33
41 41 42 42 43 43 44 45 46 47 48 49 51 52 52 53 54 54 55 56 56 56 56 56 55 55 55 55 54 54 53 53 53 52 52 52 51 51 50 49 48 47 46 45 44 44 43 42 42 42 41 41 41 40 40 41 41 41 41 41 41 42 42 42 42 43 42 42 42 41 40 39 38 37 36 36 35 35 35 35 35 35 35 34 34 33
38 39 39 40 40 41 42 43 44 45 46 47 49 50 51 52 52 53 54 55 55 56 56 56 56 55 55 55 55 54 54 54 53 53 53 52 52 52 51 50 49 48 47 46 45 45 44 43 43 42 41 41 41 41 41 41 41 41 41 41 42 42 41 42 43 43 43 43 42 41 40 39 38 38 37 36 36 36 36 36 35 35 35 34 33 33
36 37 38 38 39 39 40 41 42 43 44 46 47 48 49 49 51 52 53 54 54 55 55 56 56 57 57 56 55 54 54 54 54 54 53 53 53 52 51 50 49 49 48 47 46 45 45 44 44 43 42 42 41 41 41 41 41 41 42 42 42 42 42 42 43 44 44 43 42 42 41 40 39 39 38 37 36 36 36 36 36 36 35 34 34 33
35 35 36 37 37 38 38 39 40 41 43 45 46 47 47 47 48 49 51 52 53 54 54 55 56 57 57 57 56 56 55 55 55 54 54 54 53 53 52 51 50 49 48 47 46 45 45 45 45 44 44 43 42 42 41 41 41 42 42 42 43 43 43 43 43 44 44 44 43 42 42 41 41 40 39 37 36 36 36 37 37 36 36 35 34 33
34 34 35 35 36 36 37 37 38 39 41 43 45 46 47 47 47 48 49 50 51 52 53 54 56 56 57 57 57 56 56 55 55 55 54 54 54 53 52 51 50 49 48 47 46 45 45 45 45 45 45 44 44 43 42 41 41 41 42 42 43 44 44 44 44 44 44 44 44 43 43 42 42 40 39 38 37 37 37 37 37 37 36 36 35 34
34 35 35 35 35 36 36 36 37 37 39 41 42 44 46 47 48 48 48 48 49 50 52 53 55 55 56 57 57 56 56 56 55 55 55 55 54 53 52 52 50 49 48 47 46 45 45 44 44 45 45 45 45 44 43 42 41 41 41 42 43 44 44 44 44 45 45 45 45 44 44 43 42 41 39 38 37 37 37 37 37 37 37 36 35 35
35 35 36 36 36 36 36 36 36 36 37 38 40 42 44 46 47 48 48 49 49 50 51 52 53 54 56 56 56 56 56 56 56 56 55 55 54 54 53 52 51 50 49 47 46 45 45 44 43 44 45 46 46 45 44 43 42 41 41 42 43 44 44 45 45 45 46 46 46 46 46 45 43 42 40 39 38 37 37 37 38 38 37 36 36 35
Wind_Direction
257 257 257 256 255 255 255 255 255 255 255 255 255 254 254 252 252 252 252 253 254 255 256 257 259 260 261 261 261 262 262 262 262 263 262 262 262 262 262 262 262 262 261 261 261 261 260 260 260 260 259 259 259 258 258 259 259 258 257 257 258 259 259 258 257 255 254 252 251 251 252 253 255 255 253 250 246 244 242 239 237 238 243 249 253 256
256 256 255 255 255 256 256 256 255 255 255 255 254 253 253 252 252 252 253 254 255 256 257 258 259 260 261 261 261 261 262 262 262 262 261 261 262 262 262 262 261 261 260 260 260 261 260 260 260 259 259 258 258 258 258 258 258 258 257 257 258 258 258 256 255 254 252 251 250 250 251 252 253 253 252 249 246 244 242 238 236 237 242 248 251 253
255 254 255 255 256 257 257 257 256 255 255 254 254 253 252 252 252 253 255 256 257 257 258 258 259 260 261 261 261 261 262 262 262 261 260 260 261 261 261 261 261 261 260 260 260 261 261 260 260 259 258 257 257 257 257 258 258 258 257 257 257 256 255 254 253 252 251 250 249 248 249 250 251 252 251 248 246 244 242 239 237 238 243 247 249 251
254 254 255 257 258 258 258 258 256 255 255 254 254 253 253 253 254 255 256 257 258 259 259 259 260 261 262 262 262 262 261 261 260 259 259 259 259 260 260 260 260 260 261 260 260 260 260 260 259 258 257 257 256 257 257 257 258 258 257 256 255 254 253 252 252 251 250 249 248 248 248 249 250 251 250 247 245 244 242 240 239 240 243 245 247 248
254 255 256 257 258 258 258 257 256 255 255 254 254 254 255 256 257 258 259 259 259 260 260 261 261 262 262 262 262 261 260 260 259 258 257 257 258 258 258 259 259 260 260 261 260 260 259 259 258 257 257 256 256 256 257 257 257 257 256 255 254 252 251 250 250 250 249 248 247 247 247 248 250 250 249 246 244 242 241 240 241 241 242 243 245 246
255 255 256 256 256 256 256 256 255 255 255 255 255 255 256 257 259 259 260 260 260 260 261 261 261 261 261 261 260 260 259 258 257 257 256 256 256 257 257 258 259 260 260 260 260 259 259 258 258 257 257 257 257 257 257 257 257 256 255 253 252 251 249 249 249 248 247 246 246 246 247 248 249 248 246 244 242 241 240 241 241 241 240 241 242 244
254 254 255 254 254 254 254 254 254 254 254 255 255 256 257 258 259 259 259 259 259 260 260 260 260 260 259 259 258 258 257 257 256 256 256 255 256 256 257 258 259 260 260 260 259 259 258 258 258 258 258 258 258 258 257 257 257 256 254 252 251 249 249 248 247 246 245 244 244 245 246 248 247 246 243 242 240 239 239 241 242 241 239 239 240 242
253 253 253 253 253 253 252 253 253 253 253 254 255 256 257 258 258 258 258 258 258 259 259 259 258 258 258 257 257 257 256 256 256 256 256 256 257 257 258 259 259 259 259 259 258 258 258 258 258 259 259 259 259 258 258 257 256 254 253 251 250 249 248 247 245 244 243 242 242 244 245 246 246 244 242 241 240 239 239 241 241 240 237 237 238 240
253 253 252 252 252 252 252 252 252 252 252 253 254 255 255 256 256 257 257 257 258 258 257 257 256 256 256 256 256 255 256 256 256 256 257 257 257 258 258 258 259 258 258 258 258 258 258 259 259 259 259 259 259 258 257 256 254 252 251 249 248 248 247 246 244 242 241 240 241 242 244 245 244 243 241 241 240 239 239 240 240 238 236 235 236 239
253 253 253 253 252 252 252 252 253 252 252 253 253 254 254 254 255 255 256 256 257 256 256 255 255 254 255 255 254 254 255 255 255 256 256 257 257 257 258 258 258 258 258 258 258 258 259 259 260 260 260 259 259 258 256 255 252 250 249 248 247 247 246 244 243 241 240 239 239 241 242 242 242 241 241 241 240 240 239 240 239 236 233 232 232 236
254 254 254 253 253 253 253 253 253 252 252 252 252 253 253 253 253 254 254 255 255 255 254 253 253 252 252 252 253 253 253 254 254 255 255 255 256 256 256 257 257 257 258 258 258 259 259 260 260 260 260 259 258 257 255 253 251 248 247 246 246 245 244 243 241 240 239 238 238 239 240 240 240 240 240 240 241 240 239 239 237 234 231 229 229 233
254 254 253 253 253 253 253 252 252 251 251 250 251 252 252 253 253 253 252 253 252 252 251 251 251 250 250 250 251 252 252 253 253 254 254 254 255 255 256 256 257 257 258 258 259 259 259 260 260 260 259 259 258 256 254 252 249 247 245 244 244 243 242 241 240 239 238 237 237 238 239 239 239 239 239 240 240 240 239 238 236 232 229 226 227 230
253 253 253 252 252 252 251 251 251 250 249 249 249 250 251 252 252 252 251 250 250 249 248 248 248 249 249 250 250 251 251 252 252 253 253 253 254 255 256 256 257 258 259 259 260 260 260 260 259 259 259 258 257 255 253 251 248 246 244 243 243 242 241 240 239 238 237 236 236 237 237 238 238 238 238 239 239 239 239 237 234 230 227 224 225 230
252 251 251 250 250 250 250 249 249 249 248 248 249 250 251 251 251 250 248 248 247 247 246 246 246 247 248 249 250 250 250 251 251 252 252 253 254 255 256 257 258 259 260 260 261 261 260 260 260 259 258 258 256 254 252 249 247 245 243 242 242 241 240 239 238 237 236 235 235 236 236 237 237 237 237 238 238 238 238 236 233 229 225 224 225 230
249 249 249 249 248 248 248 248 248 248 248 249 249 250 250 250 249 247 246 245 245 245 245 246 246 247 248 249 249 250 250 250 251 252 253 254 255 256 257 258 259 259 260 261 261 261 260 260 260 260 258 257 256 254 251 249 246 244 243 242 241 240 239 238 238 237 236 235 235 235 235 236 236 236 236 237 237 238 238 236 232 229 226 225 227 230
247 247 247 247 247 247 247 247 247 247 248 248 248 248 248 247 247 246 246 245 245 245 245 245 246 247 248 249 249 250 250 251 252 253 254 255 256 257 258 258 259 260 260 261 261 261 260 260 259 259 258 257 254 252 249 247 245 243 242 241 240 239 238 237 237 237 236 235 234 234 234 234 235 235 235 236 236 237 237 235 232 230 228 229 230 231
247 246 246 247 247 247 247 247 247 247 247 247 247 247 247 247 247 247 246 246 245 245 244 245 246 248 249 250 250 250 251 252 253 254 254 255 256 257 258 258 259 259 260 260 260 260 260 259 259 258 257 255 253 250 248 245 244 242 241 240 239 238 237 237 237 236 235 234 233 233 233 233 233 233 234 234 235 236 235 234 232 230 231 232 233 233
248 248 247 247 247 247 247 247 247 247 248 248 248 248 248 248 248 247 247 246 245 245 245 246 247 249 250 251 251 251 251 253 254 254 255 256 256 257 257 258 258 259 259 259 259 259 258 258 258 257 256 254 251 248 246 244 242 241 240 239 238 237 236 236 236 235 234 233 232 232 232 232 232 232 232 232 233 234 233 232 230 230 232 234 235 234
250 249 249 249 249 248 248 248 247 247 248 248 248 248 248 248 248 247 247 247 246 246 246 247 248 250 251 252 252 252 253 253 254 255 255 256 256 257 257 257 258 258 258 258 257 257 257 256 256 255 254 252 249 246 244 242 241 240 239 238 237 235 235 235 234 233 233 232 231 231 232 232 231 231 230 231 232 232 231 229 229 230 233 235 236 234
251 251 251 251 251 250 249 248 248 248 247 248 248 248 248 248 248 247 247 247 247 247 248 249 249 250 251 252 253 253 253 254 255 255 255 256 256 256 257 257 257 257 257 256 256 256 255 255 254 254 252 249 247 244 242 241 240 239 238 236 235 234 234 233 232 232 231 230 230 231 232 232 231 231 230 230 231 230 229 227 228 231 234 236 236 234
252 252 251 252 252 252 251 250 249 248 248 247 247 247 247 247 247 247 247 247 247 248 248 249 250 251 251 252 253 253 254 254 254 255 255 256 256 256 256 256 256 256 255 255 255 254 254 253 253 252 251 248 245 243 241 240 238 237 236 235 234 233 232 231 230 230 230 230 230 230 231 231 231 231 231 230 230 229 228 228 229 232 235 236 236 234
252 252 252 253 253 253 253 253 252 251 249 247 247 246 247 247 247 247 247 247 247 248 249 249 250 251 251 252 253 253 254 254 254 254 255 256 256 255 255 255 255 254 254 253 253 253 253 252 252 251 249 246 244 242 240 239 237 236 235 233 232 231 230 229 228 228 228 228 229 230 230 231 231 231 231 230 229 229 230 231 232 234 235 236 235 233
251 252 252 253 253 253 254 254 254 253 251 249 248 247 247 247 247 247 247 248 248 249 249 250 251 251 252 252 252 253 253 254 254 254 254 255 255 255 254 254 253 253 252 252 252 251 251 251 250 249 248 245 243 241 239 238 236 234 233 232 231 230 228 227 226 226 226 227 228 229 230 230 231 232 232 231 231 232 233 234 235 235 235 235 233 231
251 251 252 252 253 253 253 254 254 254 253 252 251 250 249 248 248 248 248 249 249 250 250 251 251 252 252 252 252 252 253 253 253 253 253 254 254 254 253 252 252 251 251 251 250 250 250 250 249 249 247 245 242 240 238 236 234 233 232 231 230 228 226 225 225 225 225 226 227 229 230 230 231 232 232 233 233 234 234 235 236 235 234 233 231 228
253 252 252 252 253 253 253 253 254 253 253 253 252 252 251 250 249 249 249 250 250 250 250 251 251 251 252 251 251 252 252 252 252 252 252 253 254 253 252 251 250 250 250 250 250 249 249 249 249 248 247 245 242 239 237 234 233 232 231 230 228 226 225 224 223 223 224 225 226 228 230 231 231 232 232 233 233 234 234 234 234 234 233 231 228 226
255 255 255 254 254 254 254 254 254 253 253 253 253 253 252 252 251 250 250 250 250 250 250 250 251 251 251 251 251 251 251 252 251 251 251 252 252 252 251 249 249 249 249 249 249 249 248 248 248 248 246 244 241 238 235 233 232 231 230 228 226 224 223 223 223 223 224 224 226 228 230 231 232 232 233 233 233 233 233 232 232 232 230 228 226 224
259 259 258 257 257 256 256 255 254 254 253 253 253 253 253 253 252 252 251 250 250 249 249 250 251 251 251 251 252 251 251 251 251 250 250 250 251 250 249 248 247 248 248 248 248 248 248 248 247 247 245 243 240 237 234 232 231 230 229 227 225 223 222 222 223 223 224 225 226 228 230 231 232 232 233 234 234 233 232 231 230 230 228 227 225 223
261 261 260 260 259 258 258 257 256 255 254 254 253 253 253 253 253 252 252 251 250 250 250 250 250 251 251 251 251 251 251 250 250 250 250 250 250 249 248 247 246 246 246 247 247 247 247 246 246 245 244 242 239 237 234 232 231 229 228 226 224 223 223 223 224 224 225 226 227 229 230 231 232 232 233 234 234 233 232 230 229 228 227 226 225 223
261 260 260 260 260 260 259 259 258 257 256 255 254 254 253 253 253 252 252 251 251 250 250 250 250 250 250 251 251 251 251 250 250 249 249 249 249 249 247 246 245 245 245 245 246 246 246 245 244 243 242 240 238 236 234 232 231 230 228 226 224 223 224 225 225 226 226 227 229 230 231 231 232 233 234 235 235 234 232 229 228 227 226 226 226 225
260 259 259 259 259 259 258 258 258 258 257 257 256 255 254 254 253 253 252 252 251 250 251 250 250 250 250 250 250 251 251 250 250 249 248 248 248 248 246 245 244 244 243 243 244 245 244 243 242 240 239 238 237 235 233 232 231 230 229 227 226 225 225 225 226 227 228 229 230 231 231 232 232 233 234 235 235 234 232 229 228 227 227 227 226 226
260 259 259 258 257 257 257 257 256 256 256 256 256 255 255 254 254 253 253 252 251 250 250 250 250 250 250 249 249 250 250 250 249 248 247 246 246 246 244 243 243 243 242 241 242 242 242 241 240 239 237 236 235 234 233 232 231 231 230 229 228 227 226 226 227 228 228 229 230 231 231 232 232 233 234 235 235 234 232 229 228 227 227 227 227 226
260 259 259 258 258 257 256 255 255 255 254 254 254 253 253 253 253 252 252 251 250 249 249 249 250 250 250 249 249 249 250 250 249 247 246 245 245 245 243 242 242 242 241 241 240 240 240 240 239 238 237 236 235 234 233 232 232 231 231 231 231 230 228 227 227 228 228 229 230 230 231 232 232 233 234 235 234 233 231 229 228 227 227 227 227 225
259 259 258 258 258 257 256 256 255 254 253 252 252 251 251 251 251 250 250 250 249 248 248 247 248 249 249 250 250 250 250 250 248 246 245 244 244 244 242 241 240 240 240 240 240 240 240 239 238 237 236 235 234 234 233 233 232 232 232 232 231 231 229 228 228 228 229 229 230 230 231 232 232 233 234 234 233 232 230 229 227 227 227 227 226 224
259 258 258 258 257 257 256 256 255 255 254 253 252 251 250 249 249 249 248 248 248 247 247 247 247 248 249 250 250 250 250 249 248 246 244 243 243 243 242 240 239 239 239 239 240 240 240 239 237 237 236 236 235 234 233 233 232 232 232 232 232 231 230 229 229 229 229 229 230 231 232 232 233 233 233 233 233 232 230 228 227 227 226 225 224 222
259 258 258 257 257 256 256 256 255 255 254 253 252 251 250 249 248 248 247 247 247 247 247 247 247 247 248 249 250 251 250 249 248 246 244 243 243 243 241 240 239 239 238 238 239 239 239 238 237 236 236 235 235 234 233 233 233 233 233 232 232 231 230 230 229 229 230 230 231 232 232 232 233 233 233 233 233 231 230 228 227 226 225 224 222 221
260 259 258 258 257 256 256 255 255 254 254 253 253 252 251 250 249 248 248 247 247 247 247 247 247 247 248 249 250 251 251 250 248 246 244 243 243 242 241 241 240 239 238 238 238 238 237 237 237 236 235 235 235 235 234 233 233 233 233 232 232 232 231 230 229 229 230 230 231 232 232 232 233 233 233 233 232 231 229 228 227 226 225 223 221 220
261 260 259 258 257 257 256 255 255 254 254 253 253 252 251 250 250 249 248 248 247 247 246 246 247 247 248 248 249 250 250 250 248 246 245 243 243 242 241 241 240 239 238 238 237 237 236 236 236 236 235 235 235 235 234 233 233 232 232 232 232 232 231 230 229 229 229 230 230 231 231 232 232 232 232 232 231 230 229 228 227 225 224 223 221 219
262 261 260 259 258 257 256 256 255 254 254 253 253 252 251 250 250 249 249 248 248 247 247 247 247 247 247 248 248 249 249 249 247 246 244 243 242 242 241 241 240 239 238 238 237 236 235 235 236 236 236 235 235 235 234 233 232 232 232 232 232 231 231 230 230 229 229 229 229 230 230 231 231 231 231 230 230 229 229 228 227 225 224 222 221 220
262 261 261 260 259 258 257 256 255 255 254 253 253 252 251 251 250 249 249 248 248 247 247 246 246 246 246 247 247 247 247 247 246 245 244 242 242 242 241 240 239 239 238 238 237 236 235 235 235 235 235 235 235 234 234 232 232 231 231 231 231 231 231 230 230 229 229 228 228 228 229 229 230 230 230 230 229 229 228 228 226 225 223 222 221 220
262 262 261 260 259 258 257 257 256 255 255 254 253 253 252 251 250 249 248 248 248 247 247 246 246 246 246 246 246 246 246 246 245 244 243 242 241 241 241 240 239 238 238 237 237 236 236 236 236 235 235 234 234 233 233 232 231 230 230 230 231 231 231 230 229 229 228 228 227 227 228 228 228 229 229 229 228 228 227 226 225 223 222 221 219 218
264 262 261 260 259 258 257 257 256 255 255 254 254 253 252 251 250 249 248 248 247 247 246 246 246 245 245 245 245 245 245 244 244 243 243 242 241 240 240 240 239 238 237 236 236 236 236 236 236 236 235 234 233 233 232 232 231 230 229 229 230 230 230 229 229 228 227 227 226 227 227 227 227 227 227 228 228 228 227 225 224 222 220 219 218 217
265 264 262 261 260 258 257 256 256 255 255 254 254 253 252 251 251 250 249 248 247 246 246 245 245 244 244 244 244 244 244 243 243 243 242 241 240 239 239 239 238 237 236 236 236 236 236 236 236 235 235 234 233 233 232 232 231 230 229 229 229 229 229 229 228 227 226 226 226 225 226 226 226 226 226 227 227 227 226 224 222 221 219 218 218 217
267 265 264 262 261 259 258 257 256 255 255 254 253 252 252 251 250 250 249 248 247 246 245 245 244 244 244 243 243 243 243 242 242 242 241 240 239 238 238 238 237 236 235 235 235 236 236 236 236 236 235 234 233 232 231 231 230 229 229 229 228 227 228 227 227 226 225 225 225 225 225 225 225 225 225 226 226 226 225 224 222 221 220 219 218 218
269 267 266 264 263 261 260 258 256 255 254 253 252 252 251 250 250 249 249 248 247 246 245 244 243 243 243 243 242 242 242 241 241 241 240 239 239 238 237 237 237 236 235 234 235 235 236 236 236 235 235 234 233 232 231 230 229 229 228 228 227 227 226 226 225 224 224 224 224 224 224 224 224 224 224 225 226 226 225 224 222 221 220 219 219 218
270 269 268 266 264 262 260 258 256 255 254 253 252 251 250 249 248 248 248 247 247 245 244 243 243 243 243 242 241 241 240 240 240 239 239 238 238 237 237 236 236 235 235 234 235 235 235 235 235 235 235 234 233 232 231 230 229 228 228 227 227 227 226 225 223 222 222 222 222 222 222 222 222 222 223 224 225 225 225 223 222 221 220 220 219 219
271 270 269 267 266 264 262 259 257 256 254 253 251 250 249 248 247 246 246 246 246 245 244 243 242 242 242 241 241 240 239 239 239 238 238 237 236 236 236 236 236 235 234 234 235 235 235 235 234 234 233 233 233 232 231 230 229 228 227 227 226 226 225 224 222 221 221 221 221 220 220 220 220 221 222 223 224 224 224 223 222 221 221 220 220 220
271 270 269 268 267 265 263 261 259 256 254 253 251 250 249 248 246 245 245 244 244 244 243 242 241 241 241 240 240 239 238 238 237 237 237 236 235 235 235 235 235 234 234 234 234 235 235 235 234 233 232 232 232 231 231 230 229 228 227 226 225 224 223 222 221 220 219 219 219 218 218 218 218 220 221 222 223 223 223 223 222 222 221 221 221 221
273 272 271 269 268 266 264 262 259 257 254 252 251 250 249 248 247 246 244 243 243 242 242 241 240 240 240 240 239 238 237 237 236 236 236 235 234 234 234 233 233 233 233 233 233 234 234 234 234 233 232 231 231 230 230 229 228 228 227 225 224 223 222 220 219 218 218 218 217 216 216 216 217 219 220 221 222 223 223 222 222 222 222 222 222 222
276 274 273 271 269 267 265 263 260 257 255 253 251 250 249 248 247 246 245 243 242 241 240 240 239 239 239 238 238 237 237 236 236 235 234 234 233 233 232 232 231 231 231 231 231 232 233 233 233 233 232 232 231 230 229 228 228 227 226 225 224 222 220 218 217 216 216 216 216 215 215 216 217 218 219 220 221 222 222 222 222 222 222 222 223 223
277 276 275 273 271 269 267 264 261 258 255 253 251 250 249 248 247 246 245 244 243 241 240 239 238 238 237 237 237 236 236 235 235 234 233 233 232 231 231 230 229 228 228 228 229 229 230 230 231 232 232 232 231 230 229 228 227 226 225 224 223 221 219 217 215 215 215 215 215 215 215 216 218 219 220 220 221 222 223 223 222 223 223 223 223 223
278 277 276 274 272 270 268 266 263 260 257 254 252 250 249 248 247 246 245 244 243 242 241 240 238 237 236 236 236 235 234 234 233 233 232 231 231 230 229 228 227 226 225 226 227 227 227 228 229 230 230 231 230 230 228 227 225 224 224 223 222 221 218 216 214 214 214 214 214 214 214 216 217 218 220 221 221 222 223 223 223 223 223 223 223 223